KAITUO 1B
1 40912U 15049P   19206.32227566  .00000551  00000-0  28987-4 0  9995
2 40912  97.4495 213.1997 0016328  48.6616  76.2735 15.19647462212874
TIANWANG 1C (TW-1C)
1 40926U 15051B   19206.37841727  .00006921  00000-0  99881-4 0  9997
2 40926  97.1327 252.5133 0006474 226.8341 259.3988 15.56275078215862
TIANWANG 1B (TW-1B)
1 40927U 15051C   19206.37434148  .00006465  00000-0  99067-4 0  9992
2 40927  97.1357 251.8069 0006407 240.0806 246.2238 15.54660995215717
TIANWANG 1A (TW-1A)
1 40928U 15051D   19206.37458660  .00001799  00000-0  45680-4 0  9995
2 40928  97.1434 236.8665 0009639 306.1162 111.2365 15.40925145214827
LAPAN A2
1 40931U 15052B   19202.51269834  .00000614  00000-0 -34879-5 0  9990
2 40931   6.0001 182.6065 0012573 262.3126  97.5538 14.76609943206121
LQSAT
1 40958U 15057A   19206.17596108 -.00000012  00000-0  57134-5 0  9998
2 40958  97.8967 274.3839 0019434 122.1576 238.1521 14.73084539204175
CHUBUSAT 2
1 41338U 16012B   19206.22088624  .00000205  00000-0  91838-5 0  9990
2 41338  31.0027 272.6241 0013702 104.8142 255.4012 15.00160654188409
CHUBUSAT 3
1 41339U 16012C   19206.31916258  .00000176  00000-0  69559-5 0  9996
2 41339  31.0114 270.0453 0013385 113.5261 246.6786 15.00335666188418
OUFTI-1
1 41458U 16025C   19205.80359380  .00001296  00000-0  70207-4 0  9997
2 41458  98.1018 294.4844 0165314 235.4098 123.1439 15.05855508178008
E-STAR-2
1 41459U 16025D   19206.22739587  .00000324  00000-0  21277-4 0  9990
2 41459  98.1011 294.5711 0166367 235.1237 123.4250 15.05497575178041
AAUSAT 4
1 41460U 16025E   19206.22391443  .00000500  00000-0  29574-4 0  9991
2 41460  98.0951 295.8981 0156581 227.6227 131.1683 15.07391170178176
NUSAT 1
1 41557U 16033B   19206.34224120  .00000776  00000-0  31748-4 0  9998
2 41557  97.4180 293.6303 0014351 161.9559 198.2192 15.27264447175680
BEESAT 4
1 41619U 16040W   19205.84464807 +.00000753 +00000-0 +34774-4 0  9994
2 41619 097.3651 267.3918 0009650 253.9169 106.1005 15.23182536159368
PRATHAM
1 41783U 16059A   19205.71116448 +.00000018 +00000-0 +12817-4 0  9995
2 41783 098.0649 264.4936 0032166 270.7758 088.9759 14.63000597150815
ALSAT 1N
1 41789U 16059G   19206.35247805  .00000045  00000-0  17633-4 0  9995
2 41789  98.0674 267.1937 0027056 257.4941 102.3240 14.64251195151010
NAYIF 1
1 42017U 17008BX  19206.23230257  .00000830  00000-0  35502-4 0  9992
2 42017  97.4009 272.9473 0007446  51.6369 308.5537 15.25590853135496
MAX VALIER SAT
1 42778U 17036P   19205.81926336  .00000511  00000-0  25299-4 0  9998
2 42778  97.3519 262.6860 0014206  97.1709 263.1143 15.22054915115731
